Location: Tel Aviv
(32.0670°N, 34.7670°E)
Time: 01:36:24
(UTC+02:00)

Envisat - Pass Details

Date: 07 December 2021
Orbit: 764 x 766 km, 98.2° (Epoch: 26 January)

Event Time Altitude Azimuth Distance (km) Brightness Sun altitude
Rises 04:03:42 0° 21° (NNE) 3,235 6.4 -29.9°
Reaches altitude 10° 04:06:09 10° 29° (NNE) 2,305 5.7 -29.4°
Maximum altitude 04:10:55 41° 99° (E) 1,105 4.2 -28.4°
Drops below altitude 10° 04:15:40 10° 169° (SSE) 2,291 5.7 -27.5°
Sets 04:18:05 0° 176° (S) 3,213 6.4 -26.9°
